Regional Weather Roundup
Issued by NWS Midland/Odessa, TX

Skip options and go directly to product.
Home | Oldest Version | Previous Version | Current Version | All | Graphics & Text | Save Text | Print | Product List | Glossary On

Skip product version selection by date and time.   
465
ASUS44 KMAF 071310
RWRMAF
MIDLAND AREA WEATHER ROUNDUP
NATIONAL WEATHER SERVICE MIDLAND TX
800 AM CDT TUE JUL 07 2015

...IN SOUTHWEST TEXAS AND SOUTHEAST NEW MEXICO...

CITY           SKY/WX    TMP DP  RH WIND       PRES   REMARKS
ALPINE         CLOUDY    68  64  86 CALM      30.18R
ANDREWS        CLOUDY    70  70 100 NE6       30.04R
ARTESIA        CLOUDY    68  68 100 N12       30.13R
BIG SPRING     CLOUDY    70  68  95 N6        30.02S
CARLSBAD       CLOUDY    71  67  87 NW12      30.08R
DRYDEN           N/A     75  72  90 CALM      30.00R
FORT STOCKTON  PTSUNNY   71  67  87 W12       30.03R
GUAD PASS      FOG       63  63 100 NE24      30.18R VSB<1/4
HOBBS          DRIZZLE   66  66 100 N10       30.09R FOG
MARFA          PTSUNNY  N/A N/A N/A CALM      30.16R
MIDLAND AIRPK  CLOUDY    75  70  84 CALM      30.01R
MIDLAND INTL   CLOUDY    73  70  90 N3        30.00S
ODESSA         PTSUNNY   72  68  87 NE6       30.02R
PECOS          PTSUNNY   72  67  87 W9        30.02S
PRESIDIO       FAIR      77  65  67 N10       30.00S
SEMINOLE       CLOUDY    68  68  98 E5        30.06S
SNYDER         LGT RAIN  69  68  98 CALM      30.01R
WINK           PTSUNNY   75  69  81 NW10      30.00R
$$
...OTHER STATIONS IN TEXAS...

CITY           SKY/WX    TMP DP  RH WIND       PRES   REMARKS
ABILENE        TSTM      69  68  96 NW8       29.97F FOG
AMARILLO       LGT RAIN  62  60  93 N20       30.13R FOG
AUSTIN         CLOUDY    78  76  93 S9        30.00R
BROWNSVILLE    PTSUNNY   81  79  94 SE12      29.98R
CORPUS CHRISTI CLOUDY    81  77  88 SE12      29.98R
DALLAS FTW     CLOUDY    81  73  76 S14       29.96S
DEL RIO        CLOUDY    78  72  81 E9        29.94R
EL PASO        PTCLDY    75  61  61 NE6       30.09R
HOUSTON INT    PTSUNNY   82  77  84 S9        30.04R
LUBBOCK        HVY RAIN  67  66  97 N14       30.06R VSB 1
SAN ANGELO     CLOUDY    80  70  71 SW12      29.96S
SAN ANTONIO    CLOUDY    79  73  82 S14G23    30.00R
WACO           CLOUDY    80  74  81 S15       29.98S
WICHITA FALLS  NOT AVBL
$$
...OTHER LOCATIONS IN NEW MEXICO...

CITY           SKY/WX    TMP DP  RH WIND       PRES   REMARKS
ALAMAGORDO     MOSUNNY   72  61  68 SE13G20   30.11R
ALBUQUERQUE    PTSUNNY   64  57  78 E5        30.22S
CANNON AFB     MOSUNNY   63  62  95 NE16G22   30.16R
CLOVIS         CLOUDY    63  61  94 NE14        N/A
HOLLOMAN AFB   MOSUNNY   73  62  69 SE10      30.08R
ROSWELL        LGT RAIN  68  63  84 N8        30.13R
RUIDOSO        FOG       57  57 100 CALM      30.32R VSB 1/2
SANTA FE       LGT RAIN  58  55  90 E17       30.24F
TRUTH OR CONSE PTCLDY    68  59  73 N13       30.17R
TUCUMCARI      CLOUDY    64  58  80 NE8       30.18R HAZE
$$

USA.gov is the U.S. government's official web portal to all federal, state and local government web resources and services.